TITAN 3C TRANSTAGE DEB, 25000

Orbit data source: Space-Track

TITAN 3C TRANSTAGE DEB, 25000 is space debris in GEO originally from a launch on Thu, 26 Sep 1968 UTC launched from the Air Force Eastern Test Range (AFETR). Debris objects in space refer to the collection of defunct objects orbiting the Earth. Examples of debris include non-operational satellites, rocket bodies, and fragments generated from explosions, collisions, or faulty payload assembly.

Not visible in the next 10 days
Identifier
25000, 1968-081G
Orbit
GEO
Country
Flag of USUS
Related business
Manufacturer
Unknown
Mission
Spacecraft
Bus & Motor
Unknown
Mass
Unknown
Launch date (UTC)
1968-09-26 (57 years ago)
Launch vehicle
Unknown
Launch site
Air Force Eastern Test Range (AFETR)
Object type
Payload
Rocket body
Debris
Shape & HBR
Unknown shape, 1.1 m
Radar Cross Section
Medium (>0.1 m² and <1 m²)

Expand to show TLE details & history
Last TLE update: 8 hours ago

TLE from 8 hours ago
0 TITAN 3C TRANSTAGE DEB
1 25000U 68081G   25292.20483027  .00000001  00000-0  00000-0 0  9997
2 25000   1.4845  33.1589 0113661 294.4696 178.9034  1.01035535122884
Epoch: 2025-10-19T04:54Z
TLE epoch observation values (Epoch: 2025-10-19T04:54:57.335Z)
Latitude
1.34043°
Longitude
44.88469°
Altitude
36,049.103 km
Speed
3.048 km/s
True Right ascension
09h 46m 11s
True Declination
1° 20' 21"
Sunlit
Object was in daylight at epoch
Visualization orbit readout
Latitude
Unknown
Longitude
Unknown
Altitude
Unknown
Speed
Unknown
Apparent Right ascension
Unknown
Apparent Declination
Unknown
Sunlit
N/A
Visualization observer readout
Local Sidereal Time
07:47:24
Azimuth
Unknown
Elevation
Unknown
Doppler factor
Unknown
Orbital elements
Apogee altitude
36,051.755 km
Perigee altitude
35,098.07 km
Semi-major axis
41,953.05 km
Eccentricity
0.01137
Inclination
1.4845°
RAAN
33.1589°
Arg. of periapsis
294.4696°
True anomaly
178.92798°
Mean anomaly
178.9034°
Eccentric anomaly
178.91572°
Mean motion
0.25258 °/min
Orbital period
1,425.29 mins
BSTAR
0
Loading maneuver chart data...
Computing Atmospheric mass density...

Documentation

Showing up to 5 results
|